Regional Weather Roundup
Issued by NWS

Home | Current Version | Previous Version | Text Only | Print | Product List | Glossary Off
Versions: 1 2 3 4 5 6 7 8 9 10 11 12 13 14 15 16 17 18 19 20 21 22 23 24 25 26 27 28 29 30 31 32 33 34 35 36 37 38 39 40 41 42 43 44 45 46 47 48 49 50

000
ASUS43 KMPX 231210
RWRMN
WEATHER ROUNDUP FOR MINNESOTA
NATIONAL WEATHER SERVICE TWIN CITIES/CHANHASSEN MN
700 AM CDT SAT JUL 23 2016


NOTE: "FAIR" INDICATES FEW OR NO CLOUDS BELOW 12,000 FEET WITH NO
SIGNIFICANT WEATHER AND/OR OBSTRUCTIONS TO VISIBILITY. N/A MEANS
CURRENT SKY AND/OR WEATHER CONDITIONS ARE NOT AVAILABLE.

MNZ060>063-068>070-231300-
   Twin Cities Metro

CITY           SKY/WX    TMP DP  RH WIND       PRES   REMARKS
TWIN CITIES    CLOUDY    77  69  76 SE9       29.94F
6HR MIN TEMP:  75; 6HR MAX TEMP:  80;

ST PAUL        CLOUDY    75  70  84 S6        29.94F
CRYSTAL        PTSUNNY   75  66  73 E7        29.92F
BLAINE         PTSUNNY   73  70  88 E7        29.94F
LAKEVILLE      SUNNY     70  70 100 E5        29.93F
EDEN PRAIRIE   CLOUDY    76  70  82 E8        29.91F
6HR MIN TEMP:  75; 6HR MAX TEMP:  77;

LAKEVILLE      SUNNY     70  70 100 E5        29.93F
SOUTH ST PAUL  PTSUNNY   74  68  81 CALM      29.95S
LAKE ELMO      PTSUNNY   72  68  88 E3        29.96F
$$
MNZ001>005-007-008-013>017-022>024-027-028-231300-
   Northwest Minnesota

CITY           SKY/WX    TMP DP  RH WIND       PRES   REMARKS
BEMIDJI        CLOUDY    68  63  83 SE8       29.92F
HALLOCK        CLOUDY    66  59  77 E8        29.85S
ROSEAU         CLOUDY    66  61  82 E10       29.91F
WARROAD        CLOUDY    68  63  83 E13       29.93F
THIEF RVR FALL CLOUDY    69  62  78 SE9       29.89S
CROOKSTON      CLOUDY    70  63  78 SE7       29.87S
FOSSTON        CLOUDY    70  61  73 SE6       29.90R
DETROIT LAKES  CLOUDY    72  55  56 SE14      29.88F
MOORHEAD       PTCLDY    72  63  73 CALM      29.85F
PARK RAPIDS    CLOUDY    71  59  65 SE10      29.92F
MAHNOMEN       FAIR      71  59  65 SE8       29.87F
$$
MNZ006-009>011-018-025>026-231300-
   North Central Minnesota

CITY           SKY/WX    TMP DP  RH WIND       PRES   REMARKS
BAUDETTE       CLOUDY    64  60  87 E7        29.95F
FLAG ISLAND    PTSUNNY   70  57  64 E8        29.92F
INTL FALLS     CLOUDY    61  60  97 SE5       29.97F
6HR MIN TEMP:  56; 6HR MAX TEMP:  62;

WASKISH        CLOUDY    63  61  94 E7        29.95F
BIG FORK       CLOUDY    57  55  94 CALM      29.99S
LONGVILLE      MOSUNNY   63  63 100 CALM      29.96F
GRAND RAPIDS   CLOUDY    63  60  90 SE3       30.00F
CRANE LAKE     CLOUDY    55  54  94 CALM      30.01F
ORR            CLOUDY    57  54  88 CALM      29.97F
COOK           CLOUDY    55  55 100 CALM      30.00F
WALKER         FAIR      69  62  77 E5        29.94F
$$
MNZ012-019>021-037-231300-
   Northeast Minnesota

CITY           SKY/WX    TMP DP  RH WIND       PRES   REMARKS
DULUTH         SUNNY     67  59  75 E3        30.00F
6HR MIN TEMP:  61; 6HR MAX TEMP:  70;

ELY            CLOUDY    55  54  94 CALM      30.02S
HIBBING        MOSUNNY   55  55 100 CALM      30.00S
EVELETH        PTSUNNY   58  57  99 CALM      30.02R
DULUTH HARBOR  SUNNY     68  64  88 CALM      29.98F
TWO HARBORS    PTSUNNY   66  61  82 CALM      29.99R
SILVER BAY     MOSUNNY   59  57  94 CALM      29.99R
GRAND MARAIS     N/A     68  56  65 CALM      29.99S
G MARAIS ARPRT CLOUDY    63  55  77 N3        30.05S
$$
MNZ029>031-032-039>041-046>048-054>057-064-231300-
   West Central Minnesota

CITY           SKY/WX    TMP DP  RH WIND       PRES   REMARKS
FERGUS FALLS   CLOUDY    77  64  65 SE10G17   29.85F
WHEATON        CLOUDY    73  70  88 E10       29.84F
MORRIS         CLOUDY    73  68  83 E9        29.85S
ALEXANDRIA     CLOUDY    74  66  76 E12       29.91F
ELBOW LAKE     FAIR      74  67  81 SE15      29.86F
WADENA         CLOUDY    66  63  88 E6        29.92F
GLENWOOD       CLOUDY    72  66  83 E9        29.91S
APPLETON       CLOUDY    73  70  88 E8        29.84F
BENSON         PTCLDY    73  66  78 SE7       29.85F
ORTONVILLE     CLOUDY    73  68  83 SE8       29.84S
MADISON        CLOUDY    72  70  94 SE8       29.84F
WILLMAR        FAIR      75  72  88 E9        29.88F
$$
MNZ033>034-036-042>043-049>051-058-059-231300-
   Central Minnesota

CITY           SKY/WX    TMP DP  RH WIND       PRES   REMARKS
ST CLOUD       CLOUDY    72  68  87 E7        29.91F
6HR MIN TEMP:  68; 6HR MAX TEMP:  72;

SAUK CENTRE    FAIR      73  66  79 E12       29.91S
PAYNESVILLE    CLOUDY    74  67  80 E6        29.91F
AITKIN         SUNNY     70  59  68 E3        29.95F
PINE RIVER     PTSUNNY   66  63  88 CALM      29.98F
BRAINERD       CLOUDY    70  63  78 CALM      29.95F
STAPLES        CLOUDY    70  61  73 E3        29.93F
LONG PRAIRIE   FAIR      70  66  88 NE6       29.93S
LITTLE FALLS   CLOUDY    70  59  68 E6        29.92F
LITCHFIELD     PTCLDY    73  72  94 E8        29.91F
BUFFALO        CLOUDY    73  66  77 E6        29.93F
MAPLE LAKE     CLOUDY    74  69  83 E7        29.93F
HUTCHINSON     CLOUDY    76  73  93 E6        29.90F
$$
MNZ037-044-045-052-053-231300-
   East Central Minnesota

CITY           SKY/WX    TMP DP  RH WIND       PRES   REMARKS
PRINCETON      CLOUDY    72  68  88 E6        29.93F
MORA           CLOUDY    64  59  82 CALM      29.97F
CAMBRIDGE      CLOUDY    73  64  73 CALM      29.93F
RUSH CITY      CLOUDY    69  68  94 CALM      29.96S
MOOSE LAKE     CLOUDY    63  63 100 CALM      29.96F
HINCKLEY       FAIR      70  63  78 E5        29.97S
CLOQUET        SUNNY     64  61  88 E3        29.99F
MCGREGOR       SUNNY     66  63  88 E3        29.98S
$$
MNZ071>073-080-081-089-090-097-098-231300-
   Southwest Minnesota

CITY           SKY/WX    TMP DP  RH WIND       PRES   REMARKS
MONTEVIDEO     CLOUDY    73  72  94 SE10      29.86F
GRANITE FALLS  CLOUDY    75  73  92 E6        29.87S
CANBY          CLOUDY    74  72  94 E3        29.86F FOG
MARSHALL       FOG       77  76  96 E10       29.85F VSB 1/2
REDWOOD FALLS  CLOUDY    75  73  93 E6        29.87R
OLIVIA         MOCLDY    73  72  94 E8        29.86F
PIPESTONE      CLOUDY    79  77  94 SE7       29.88R
WINDOM         CLOUDY    79  75  89 E7        29.87F
WORTHINGTON    CLOUDY    78  76  93 SE5       29.89R
JACKSON        CLOUDY    79  73  83 SE8       29.88S FOG
TRACY          FOG       77  77  99 SE6       29.88R VSB 1/4
SLAYTON        CLOUDY    77  76  96 SE7       29.89R
$$
MNZ065>067-074>077-082>085-091>093-231300-
   South Central Minnesota

CITY           SKY/WX    TMP DP  RH WIND       PRES   REMARKS
MANKATO        PTCLDY    79  73  83 E12       29.89F
NEW ULM        CLOUDY    77  75  94 E8        29.88S
ST JAMES       MOCLDY    73  72  94 E8        29.88F
FAIRMONT       CLOUDY    77  73  88 SE12      29.87F
GLENCOE        PTCLDY    76  74  92 E9        29.90F
FARIBAULT      MOSUNNY   75  73  94 E5        29.92F
OWATONNA       MOSUNNY   79  75  89 E7        29.92F
WASECA         MOSUNNY   77  73  88 E9        29.92F
ALBERT LEA     CLOUDY    77  75  94 E7        29.92F FOG
$$
MNZ078>079-086>088-094>096-231300-
   Southeast Minnesota

CITY           SKY/WX    TMP DP  RH WIND       PRES   REMARKS
ROCHESTER      PTSUNNY   77  77 100 E8        29.96F FOG
6HR MIN TEMP:  74; 6HR MAX TEMP:  78;

RED WING       CLOUDY    72  70  94 E3        29.93F
STANTON        MOSUNNY   72  70  94 CALM      29.93F
DODGE CENTER   MOSUNNY   75  75 100 E7        29.95F FOG
WINONA         CLOUDY    73  72  94 SE5       29.96F
AUSTIN         MOSUNNY   75  73  94 E6        29.92F FOG
PRESTON        FOG       76  74  94 E3        29.97F VSB 1/2
$$
ABBREVIATIONS USED IN REMARKS
   TC - TEMPERATURES IN CELSIUS
  WCI - WIND CHILL INDEX
   HX - HEAT INDEX
  VSB - VISIBILITY
$$



USA.gov is the U.S. government's official web portal to all federal, state and local government web resources and services.